Flag for U.S.A. Weather past 2 weeks in Manhattan, Kansas, U.S.A.

Now
97 °F

Sunny.


Feels Like: 98 °F
Forecast: 74 / 98 °F
Wind: 14 mph from Southwest

Location: Manhattan Municipal Airport

Current Time: Aug 23, 2014 at 1:34:51 PM

Latest Report: Aug 23, 2014 at 12:52 PM


Visibility: 10 mi

Pressure: 29.80 "Hg

Humidity: 32%

Dew point: 62 °F

Location of ManhattanLocation

Historic Weather in Manhattan — Graph

°F

Manhattan temperature yesterday

Maximum temperature yesterday: 96 °F (at 1:52 PM)
Minimum temperature yesterday: 78 °F (at 9:52 AM)
Average temperature yesterday: 85 °F

Past Weeks' High & Low Weather Summary

 TemperatureHumidityPressure
High102 °F (Aug 21, 3:52 PM)97% (Aug 13, 6:52 AM)30.16 "Hg (Aug 13, 6:52 AM)
Low54 °F (Aug 13, 6:52 AM)32% (Aug 21, 3:52 PM)29.67 "Hg (Aug 19, 3:52 AM)
Average79 °F66%29.91 "Hg
* Reported Aug 8 11:52 AM — Aug 23 11:52 AM, Manhattan, Weather by CustomWeather, © 2014

Note: Actual official high and low records may vary slightly from our data, if they occured in-between our weather recording intervals... More about our weather records

Advertising

Manhattan weather history for previous 24 hours

 ConditionsComfort  
Time TempWeatherWind HumidityBarometerVisibility
11:52 AM
Aug 23
93 °FSunny.10 mph36%29.82 "Hg10 mi
10:52 AM88 °FSunny.9 mph43%29.83 "Hg10 mi
9:52 AM84 °FSunny.8 mph48%29.85 "Hg10 mi
8:52 AM81 °FSunny.3 mph56%29.85 "Hg10 mi
7:52 AM78 °FSunny.3 mph64%29.83 "Hg10 mi
6:52 AM75 °FPassing clouds.7 mph71%29.83 "Hg10 mi
5:52 AM78 °FPassing clouds.7 mph62%29.81 "Hg10 mi
4:52 AM80 °FClear.12 mph60%29.80 "Hg10 mi
3:52 AM82 °FPassing clouds.15 mph58%29.80 "Hg10 mi
2:52 AM81 °FClear.12 mph65%29.81 "Hg10 mi
1:52 AM83 °FClear.7 mph63%29.83 "Hg10 mi
12:52 AM82 °FClear.5 mph65%29.83 "Hg10 mi
11:52 PM
Aug 22
81 °FClear.5 mph62%29.84 "Hg10 mi
10:52 PM82 °FClear.3 mph55%29.85 "Hg10 mi
9:52 PM82 °FClear.No wind55%29.85 "Hg10 mi
8:52 PM83 °FSunny.No wind59%29.84 "Hg10 mi
7:52 PM84 °FSunny.No wind57%29.82 "Hg10 mi
6:52 PM86 °FSunny.6 mph59%29.82 "Hg10 mi
5:52 PM91 °FSunny.9 mph52%29.84 "Hg10 mi
4:52 PM92 °FSunny.9 mph44%29.83 "Hg10 mi
3:52 PM93 °FSunny.5 mph46%29.83 "Hg10 mi
2:52 PM96 °FPassing clouds.5 mph43%29.85 "Hg10 mi
1:52 PM96 °FPassing clouds.20 mph43%29.85 "Hg10 mi
Weather by CustomWeather, © 2014

See weather overviewHow to use our weather pages